Location: Unspecified
(35.7250°N, 0.0000°E)
Time: 18:57:54
(UTC+00:00)

Vanguard 1 Rocket - Pass Details

Date: 19 June 2019
Orbit: 652 x 4224 km, 34.3° (Epoch: 20 August)

Event Time Altitude Azimuth Distance (km) Brightness Sun altitude
Rises 23:40:10 0° 278° (W) 3,764 10.7 -30.6°
Enters shadow 23:43:13 - 266° (W) 2,607 9.7 -30.7°
Reaches altitude 10° 23:43:40 10° 264° (W) 2,450 - -30.7°
Maximum altitude 23:47:46 23° 212° (SSW) 1,471 - -30.8°
Drops below altitude 10° 23:51:16 10° 159° (SSE) 2,042 - -30.8°
Sets 23:53:53 0° 143° (SE) 2,976 - -30.8°
